User: anonymous   Login
Location: Cabeza de los Veneras
(40.2000°N, 5.2000°W)
Time: 16:31:51
(UTC+00:00)
Language:

USA 281 - Orbit

View from above orbital plane
View from above orbital plane
View from above satellite
View from above satellite

Ground track
Ground track

The orbit data is extracted from the following two-line orbital elements,

1 43145U 18005A   24162.96089282 0.00000000  00000-0  00000-0 0    03
2 43145 106.0018 254.8535 0004619 294.2689  65.7310 13.47964255    05
Epoch (UTC): 10 June 2024 23:03:41
Eccentricity: 0.0004619
inclination: 106.0018°
perigee height: 1076 km
apogee height: 1083 km
right ascension of ascending node: 254.8535°
argument of perigee: 294.2689°
revolutions per day: 13.47964255
mean anomaly at epoch: 65.7310°
orbit number at epoch: 0

The dashed part of the orbit path shows where the satellite is in the earth's shadow,  

DLR